WJA1152 CYYZ-KLAS

Flight info

Callsign WJA1152
Flight time 4h 35m
Altitude 36000
Route GOPUP4 HOCKE DCT OBK DCT IOW DCT BIE DCT GLD DCT MTJ DCT GGAPP CHOWW4
Aircraft B737/M-SDE2E3FGHIRWXY/LB1

Departure

Time 2026-05-07 13:09
Airport Toronto Pearson International Airport (CYYZ)

Arrival

Time 2026-05-07 17:44
Airport Harry Reid International Airport (KLAS)
Time Latitude Longitude Altitude Speed Heading
2026-05-07 12:45 43.68401 -79.62080 572 ft 0 kts 106°
2026-05-07 13:00 43.68403 -79.62091 571 ft 2 kts 106°
2026-05-07 13:00 43.68407 -79.62112 571 ft 2 kts 106°
2026-05-07 13:00 43.68412 -79.62131 571 ft 2 kts 106°
2026-05-07 13:00 43.68416 -79.62150 570 ft 2 kts 106°
2026-05-07 13:01 43.68420 -79.62169 570 ft 1 kts 132°
2026-05-07 13:01 43.68433 -79.62176 570 ft 2 kts 189°
2026-05-07 13:01 43.68447 -79.62169 570 ft 2 kts 197°
2026-05-07 13:01 43.68457 -79.62166 570 ft 1 kts 194°
2026-05-07 13:02 43.68457 -79.62165 570 ft 0 kts 194°
2026-05-07 13:04 43.68450 -79.62168 570 ft 4 kts 194°
2026-05-07 13:04 43.68393 -79.62188 569 ft 11 kts 195°
2026-05-07 13:04 43.68328 -79.62258 570 ft 12 kts 226°
2026-05-07 13:05 43.68283 -79.62350 571 ft 11 kts 255°
2026-05-07 13:05 43.68244 -79.62448 571 ft 12 kts 227°
2026-05-07 13:05 43.68167 -79.62488 570 ft 13 kts 149°
2026-05-07 13:05 43.68100 -79.62402 572 ft 12 kts 134°
2026-05-07 13:06 43.68037 -79.62320 573 ft 12 kts 136°
2026-05-07 13:06 43.67969 -79.62231 572 ft 14 kts 137°
2026-05-07 13:06 43.67878 -79.62162 571 ft 16 kts 166°
2026-05-07 13:06 43.67790 -79.62067 570 ft 16 kts 135°
2026-05-07 13:07 43.67704 -79.61953 569 ft 17 kts 138°
2026-05-07 13:07 43.67612 -79.61835 567 ft 18 kts 136°
2026-05-07 13:07 43.67508 -79.61831 566 ft 16 kts 227°
2026-05-07 13:07 43.67465 -79.61959 566 ft 14 kts 309°
2026-05-07 13:08 43.67503 -79.62011 567 ft 0 kts 317°
2026-05-07 13:08 43.67508 -79.62018 567 ft 6 kts 316°
2026-05-07 13:08 43.67602 -79.62140 569 ft 39 kts 316°
2026-05-07 13:08 43.67986 -79.62643 570 ft 112 kts 316°
2026-05-07 13:09 43.68695 -79.63573 695 ft 156 kts 316°
2026-05-07 13:09 43.69438 -79.64596 1429 ft 148 kts 316°
2026-05-07 13:09 43.70180 -79.65530 2052 ft 151 kts 318°
2026-05-07 13:09 43.70908 -79.66682 2368 ft 172 kts 296°
2026-05-07 13:10 43.71042 -79.68391 2733 ft 194 kts 266°
2026-05-07 13:10 43.71068 -79.70331 3195 ft 210 kts 286°
2026-05-07 13:10 43.71528 -79.72279 3812 ft 223 kts 288°
2026-05-07 13:10 43.71975 -79.74435 4339 ft 242 kts 286°
2026-05-07 13:11 43.72412 -79.76688 5138 ft 249 kts 286°
2026-05-07 13:11 43.72855 -79.78996 6065 ft 251 kts 285°
2026-05-07 13:11 43.73297 -79.81313 6989 ft 252 kts 284°
2026-05-07 13:11 43.73738 -79.83639 7886 ft 254 kts 283°
2026-05-07 13:12 43.74183 -79.85994 8750 ft 257 kts 282°
2026-05-07 13:12 43.74639 -79.88409 9585 ft 260 kts 281°
2026-05-07 13:12 43.75062 -79.90652 10299 ft 264 kts 280°
2026-05-07 13:12 43.75529 -79.93195 10707 ft 283 kts 277°
2026-05-07 13:13 43.75618 -79.95985 10904 ft 303 kts 261°
2026-05-07 13:13 43.75359 -79.98971 11356 ft 320 kts 261°
2026-05-07 13:13 43.75143 -80.02066 12013 ft 330 kts 261°
2026-05-07 13:13 43.74938 -80.05231 12820 ft 335 kts 261°
2026-05-07 13:14 43.74729 -80.08368 13625 ft 339 kts 261°
2026-05-07 13:14 43.74514 -80.11588 14435 ft 343 kts 261°
2026-05-07 13:14 43.74294 -80.14909 15248 ft 346 kts 260°
2026-05-07 13:14 43.74075 -80.18190 16014 ft 349 kts 260°
2026-05-07 13:15 43.73849 -80.21560 16777 ft 353 kts 260°
2026-05-07 13:15 43.73623 -80.24926 17512 ft 356 kts 260°
2026-05-07 13:15 43.73392 -80.28338 18217 ft 360 kts 260°
2026-05-07 13:15 43.73255 -80.31796 18907 ft 366 kts 264°
2026-05-07 13:16 43.73286 -80.35070 19542 ft 369 kts 265°
2026-05-07 13:16 43.73320 -80.38644 20204 ft 372 kts 265°
2026-05-07 13:16 43.73327 -80.42243 20824 ft 376 kts 264°
2026-05-07 13:16 43.73331 -80.45862 21451 ft 379 kts 264°
2026-05-07 13:17 43.73338 -80.49489 22018 ft 383 kts 264°
2026-05-07 13:17 43.73344 -80.53180 22617 ft 385 kts 264°
2026-05-07 13:17 43.73347 -80.56891 23175 ft 389 kts 264°
2026-05-07 13:17 43.73348 -80.60583 23734 ft 391 kts 264°
2026-05-07 13:18 43.73349 -80.64377 24248 ft 395 kts 264°
2026-05-07 13:18 43.73363 -80.68177 24801 ft 397 kts 264°
2026-05-07 13:18 43.73394 -80.71981 25305 ft 400 kts 264°
2026-05-07 13:18 43.73407 -80.75865 25737 ft 405 kts 263°
2026-05-07 13:19 43.73394 -80.79763 26262 ft 406 kts 263°
2026-05-07 13:19 43.73355 -80.83634 26777 ft 407 kts 262°
2026-05-07 13:19 43.73308 -80.87577 27236 ft 410 kts 262°
2026-05-07 13:19 43.73274 -80.91473 27681 ft 413 kts 263°
2026-05-07 13:20 43.73242 -80.95471 27962 ft 419 kts 263°
2026-05-07 13:20 43.73210 -80.99506 28427 ft 420 kts 263°
2026-05-07 13:20 43.73178 -81.03522 29058 ft 417 kts 263°
2026-05-07 13:20 43.73147 -81.07500 29482 ft 418 kts 264°
2026-05-07 13:21 43.73122 -81.11549 29953 ft 418 kts 264°
2026-05-07 13:21 43.73111 -81.15517 30471 ft 416 kts 265°
2026-05-07 13:21 43.73123 -81.19398 30860 ft 417 kts 265°
2026-05-07 13:21 43.73157 -81.23287 31359 ft 415 kts 265°
2026-05-07 13:22 43.73182 -81.27206 31882 ft 412 kts 265°
2026-05-07 13:22 43.73196 -81.31160 32360 ft 409 kts 264°
2026-05-07 13:22 43.73196 -81.35055 32729 ft 409 kts 264°
2026-05-07 13:22 43.73149 -81.38966 33065 ft 408 kts 263°
2026-05-07 13:23 43.73062 -81.42914 33397 ft 408 kts 263°
2026-05-07 13:23 43.72973 -81.46787 33696 ft 409 kts 263°
2026-05-07 13:23 43.72878 -81.50741 33965 ft 410 kts 263°
2026-05-07 13:23 43.72692 -81.54654 34307 ft 405 kts 258°
2026-05-07 13:24 43.71978 -81.58315 34712 ft 394 kts 243°
2026-05-07 13:24 43.70670 -81.61590 35153 ft 387 kts 237°
2026-05-07 13:24 43.69296 -81.64747 35520 ft 385 kts 238°
2026-05-07 13:24 43.68000 -81.67941 35822 ft 384 kts 238°
2026-05-07 13:25 43.66721 -81.71164 35976 ft 383 kts 239°
2026-05-07 13:25 43.65436 -81.74352 35976 ft 378 kts 238°
2026-05-07 13:25 43.62863 -81.80592 35981 ft 372 kts 238°
2026-05-07 13:26 43.60312 -81.86763 35982 ft 373 kts 238°
2026-05-07 13:26 43.57740 -81.93005 35981 ft 375 kts 238°
2026-05-07 13:27 43.55183 -81.99229 35981 ft 374 kts 238°
2026-05-07 13:27 43.52636 -82.05428 35982 ft 374 kts 238°
2026-05-07 13:28 43.50137 -82.11471 35981 ft 375 kts 238°
2026-05-07 13:28 43.47614 -82.17564 35982 ft 373 kts 239°
2026-05-07 13:29 43.45357 -82.23296 35981 ft 373 kts 240°
2026-05-07 13:29 43.42994 -82.29350 35982 ft 373 kts 239°
2026-05-07 13:30 43.40518 -82.35590 35981 ft 374 kts 239°
2026-05-07 13:30 43.38004 -82.41833 35982 ft 373 kts 239°
2026-05-07 13:31 43.35490 -82.48029 35982 ft 374 kts 239°
2026-05-07 13:31 43.32959 -82.54268 35981 ft 373 kts 239°
2026-05-07 13:32 43.30471 -82.60498 35982 ft 375 kts 240°
2026-05-07 13:32 43.27977 -82.66758 35981 ft 373 kts 239°
2026-05-07 13:33 43.25940 -82.73304 35982 ft 378 kts 250°
2026-05-07 13:33 43.24648 -82.80266 35982 ft 377 kts 251°
2026-05-07 13:34 43.22807 -82.90748 35981 ft 377 kts 253°
2026-05-07 13:35 43.21585 -82.97695 35981 ft 372 kts 253°
2026-05-07 13:35 43.20450 -83.04060 35982 ft 371 kts 253°
2026-05-07 13:36 43.19240 -83.10947 35981 ft 371 kts 253°
2026-05-07 13:36 43.18042 -83.17790 35980 ft 371 kts 253°
2026-05-07 13:37 43.16808 -83.24637 35982 ft 370 kts 253°
2026-05-07 13:37 43.15674 -83.30936 35984 ft 371 kts 253°
2026-05-07 13:38 43.14465 -83.37785 35985 ft 371 kts 253°
2026-05-07 13:38 43.13253 -83.44616 35985 ft 370 kts 253°
2026-05-07 13:39 43.12025 -83.51447 35985 ft 370 kts 253°
2026-05-07 13:39 43.10783 -83.58238 35987 ft 369 kts 253°
2026-05-07 13:40 43.09530 -83.65062 35989 ft 371 kts 253°
2026-05-07 13:40 43.08299 -83.71935 35989 ft 371 kts 253°
2026-05-07 13:41 43.07061 -83.78728 35990 ft 370 kts 253°
2026-05-07 13:41 43.05797 -83.85515 35993 ft 370 kts 252°
2026-05-07 13:42 43.04528 -83.92339 35996 ft 372 kts 252°
2026-05-07 13:42 43.03283 -83.99169 35999 ft 370 kts 252°
2026-05-07 13:43 43.02059 -84.05814 35999 ft 372 kts 252°
2026-05-07 13:43 43.00866 -84.12157 36000 ft 373 kts 253°
2026-05-07 13:44 42.99602 -84.19024 35999 ft 373 kts 253°
2026-05-07 13:44 42.98313 -84.25882 36000 ft 374 kts 253°
2026-05-07 13:45 42.97010 -84.32722 36002 ft 375 kts 253°
2026-05-07 13:45 42.95696 -84.39633 36005 ft 375 kts 254°
2026-05-07 13:46 42.94394 -84.46534 36008 ft 376 kts 254°
2026-05-07 13:46 42.93104 -84.53433 36008 ft 378 kts 254°
2026-05-07 13:47 42.91797 -84.60342 36008 ft 378 kts 255°
2026-05-07 13:47 42.90472 -84.67274 36007 ft 379 kts 253°
2026-05-07 13:48 42.89111 -84.74221 36008 ft 379 kts 254°
2026-05-07 13:48 42.87763 -84.81183 36008 ft 379 kts 255°
2026-05-07 13:49 42.86451 -84.88094 36009 ft 380 kts 255°
2026-05-07 13:49 42.85110 -84.95054 36008 ft 380 kts 254°
2026-05-07 13:50 42.83768 -85.01966 36010 ft 375 kts 255°
2026-05-07 13:50 42.82250 -85.09654 36014 ft 369 kts 255°
2026-05-07 13:51 42.81133 -85.15254 36015 ft 366 kts 256°
2026-05-07 13:51 42.79821 -85.21853 36018 ft 360 kts 256°
2026-05-07 13:52 42.78539 -85.28419 36018 ft 361 kts 257°
2026-05-07 13:52 42.77241 -85.35017 36018 ft 363 kts 256°
2026-05-07 13:53 42.75923 -85.41657 36018 ft 362 kts 256°
2026-05-07 13:53 42.74609 -85.48259 36018 ft 362 kts 257°
2026-05-07 13:54 42.73272 -85.54851 36018 ft 363 kts 256°
2026-05-07 13:54 42.71925 -85.61462 36017 ft 363 kts 257°
2026-05-07 13:55 42.70619 -85.68043 36019 ft 362 kts 256°
2026-05-07 13:55 42.69294 -85.74609 36024 ft 364 kts 256°
2026-05-07 13:56 42.67932 -85.81218 36029 ft 362 kts 256°
2026-05-07 13:56 42.66582 -85.87822 36034 ft 362 kts 256°
2026-05-07 13:57 42.65265 -85.94399 36036 ft 363 kts 256°
2026-05-07 13:57 42.63911 -86.00959 36036 ft 362 kts 256°
2026-05-07 13:58 42.62545 -86.07525 36036 ft 363 kts 256°
2026-05-07 13:58 42.61191 -86.14083 36036 ft 362 kts 256°
2026-05-07 13:59 42.59887 -86.20447 36038 ft 362 kts 256°
2026-05-07 13:59 42.58566 -86.26897 36042 ft 362 kts 256°
2026-05-07 14:00 42.57199 -86.33483 36048 ft 362 kts 256°
2026-05-07 14:00 42.55816 -86.40031 36054 ft 362 kts 256°
2026-05-07 14:01 42.54431 -86.46570 36054 ft 362 kts 256°
2026-05-07 14:01 42.53051 -86.53104 36054 ft 362 kts 256°
2026-05-07 14:02 42.51658 -86.59669 36054 ft 363 kts 256°
2026-05-07 14:02 42.50277 -86.66214 36054 ft 363 kts 256°
2026-05-07 14:03 42.48888 -86.72786 36055 ft 362 kts 256°
2026-05-07 14:03 42.47512 -86.79333 36055 ft 362 kts 256°
2026-05-07 14:04 42.46121 -86.85841 36055 ft 362 kts 256°
2026-05-07 14:04 42.44711 -86.92413 36054 ft 362 kts 256°
2026-05-07 14:05 42.43322 -86.98910 36055 ft 357 kts 256°
2026-05-07 14:05 42.41980 -87.05116 36055 ft 355 kts 256°
2026-05-07 14:06 42.40665 -87.11208 36054 ft 355 kts 257°
2026-05-07 14:06 42.39299 -87.17545 36055 ft 352 kts 257°
2026-05-07 14:07 42.37921 -87.23895 36056 ft 353 kts 257°
2026-05-07 14:07 42.36530 -87.30295 36055 ft 353 kts 257°
2026-05-07 14:08 42.35145 -87.36651 36054 ft 353 kts 257°
2026-05-07 14:08 42.33746 -87.42973 36055 ft 352 kts 257°
2026-05-07 14:09 42.32362 -87.49282 36054 ft 353 kts 257°
2026-05-07 14:09 42.30962 -87.55634 36054 ft 353 kts 257°
2026-05-07 14:10 42.29554 -87.61951 36055 ft 353 kts 257°
2026-05-07 14:10 42.27900 -87.69357 36059 ft 353 kts 256°
2026-05-07 14:11 42.26734 -87.74643 36063 ft 353 kts 257°
2026-05-07 14:11 42.25326 -87.80969 36068 ft 354 kts 256°
2026-05-07 14:12 42.23899 -87.87305 36072 ft 353 kts 257°
2026-05-07 14:12 42.22478 -87.93618 36073 ft 353 kts 256°
2026-05-07 14:13 42.21250 -87.99975 36073 ft 351 kts 260°
2026-05-07 14:13 42.20171 -88.06423 36073 ft 353 kts 259°
2026-05-07 14:14 42.19034 -88.12840 36071 ft 352 kts 259°
2026-05-07 14:14 42.17925 -88.19223 36069 ft 351 kts 259°
2026-05-07 14:15 42.16798 -88.25623 36066 ft 353 kts 259°
2026-05-07 14:15 42.15647 -88.32044 36064 ft 352 kts 259°
2026-05-07 14:16 42.14506 -88.38425 36066 ft 352 kts 259°
2026-05-07 14:16 42.13388 -88.44797 36068 ft 351 kts 259°
2026-05-07 14:17 42.12248 -88.51228 36071 ft 352 kts 259°
2026-05-07 14:17 42.11193 -88.57118 36073 ft 352 kts 259°
2026-05-07 14:18 42.10038 -88.63543 36073 ft 352 kts 259°
2026-05-07 14:18 42.08883 -88.69930 36073 ft 353 kts 259°
2026-05-07 14:19 42.07711 -88.76317 36073 ft 352 kts 259°
2026-05-07 14:19 42.06538 -88.82722 36073 ft 352 kts 259°
2026-05-07 14:20 42.05370 -88.89077 36075 ft 352 kts 259°
2026-05-07 14:20 42.04196 -88.95470 36076 ft 352 kts 260°
2026-05-07 14:21 42.03034 -89.01862 36076 ft 354 kts 261°
2026-05-07 14:21 42.01852 -89.08292 36075 ft 353 kts 261°
2026-05-07 14:22 42.00479 -89.15745 36073 ft 354 kts 261°
2026-05-07 14:22 41.99494 -89.21075 36073 ft 355 kts 261°
2026-05-07 14:23 41.98304 -89.27467 36071 ft 353 kts 261°
2026-05-07 14:23 41.97103 -89.33892 36068 ft 355 kts 261°
2026-05-07 14:24 41.95896 -89.40299 36066 ft 354 kts 261°
2026-05-07 14:24 41.94697 -89.46669 36065 ft 355 kts 261°
2026-05-07 14:25 41.93477 -89.53087 36063 ft 354 kts 260°
2026-05-07 14:25 41.92250 -89.59473 36064 ft 354 kts 261°
2026-05-07 14:26 41.91024 -89.65881 36064 ft 355 kts 260°
2026-05-07 14:26 41.89796 -89.72280 36063 ft 355 kts 260°
2026-05-07 14:27 41.88557 -89.78694 36061 ft 354 kts 260°
2026-05-07 14:27 41.87322 -89.85072 36051 ft 355 kts 260°
2026-05-07 14:28 41.86084 -89.91468 36041 ft 356 kts 260°
2026-05-07 14:28 41.84856 -89.97868 36032 ft 354 kts 261°
2026-05-07 14:29 41.83664 -90.04282 36028 ft 354 kts 261°
2026-05-07 14:29 41.82406 -90.10668 36030 ft 356 kts 260°
2026-05-07 14:30 41.81130 -90.17038 36033 ft 354 kts 260°
2026-05-07 14:30 41.79936 -90.23135 36035 ft 355 kts 260°
2026-05-07 14:31 41.78711 -90.29517 36036 ft 354 kts 261°
2026-05-07 14:31 41.77472 -90.35899 36036 ft 354 kts 260°
2026-05-07 14:32 41.76222 -90.42281 36036 ft 355 kts 261°
2026-05-07 14:32 41.74956 -90.48637 36036 ft 355 kts 260°
2026-05-07 14:33 41.73656 -90.54976 36033 ft 355 kts 260°
2026-05-07 14:33 41.72364 -90.61343 36031 ft 355 kts 260°
2026-05-07 14:34 41.71075 -90.67706 36028 ft 354 kts 259°
2026-05-07 14:34 41.69792 -90.74045 36027 ft 354 kts 260°
2026-05-07 14:35 41.68523 -90.80350 36025 ft 355 kts 260°
2026-05-07 14:35 41.67268 -90.86598 36024 ft 354 kts 260°
2026-05-07 14:36 41.65982 -90.92933 36023 ft 356 kts 260°
2026-05-07 14:36 41.64690 -90.99342 36020 ft 356 kts 260°
2026-05-07 14:37 41.63432 -91.05722 36020 ft 356 kts 260°
2026-05-07 14:37 41.61503 -91.15243 36019 ft 355 kts 260°
2026-05-07 14:38 41.60167 -91.21593 36018 ft 357 kts 259°
2026-05-07 14:38 41.58825 -91.27951 36020 ft 356 kts 260°
2026-05-07 14:39 41.57536 -91.34299 36023 ft 355 kts 260°
2026-05-07 14:39 41.56240 -91.40647 36025 ft 354 kts 260°
2026-05-07 14:40 41.54902 -91.46961 36026 ft 357 kts 259°
2026-05-07 14:40 41.53553 -91.53311 36022 ft 355 kts 260°
2026-05-07 14:41 41.52219 -91.59658 36016 ft 355 kts 260°
2026-05-07 14:41 41.50918 -91.66008 36023 ft 354 kts 259°
2026-05-07 14:42 41.49599 -91.72274 36019 ft 352 kts 258°
2026-05-07 14:42 41.48296 -91.78326 36015 ft 352 kts 258°
2026-05-07 14:43 41.46963 -91.84593 36014 ft 352 kts 258°
2026-05-07 14:43 41.45641 -91.90874 36014 ft 353 kts 258°
2026-05-07 14:44 41.44295 -91.97147 36020 ft 352 kts 258°
2026-05-07 14:44 41.42945 -92.03400 36026 ft 352 kts 258°
2026-05-07 14:45 41.41610 -92.09654 36030 ft 353 kts 258°
2026-05-07 14:45 41.40260 -92.15944 36035 ft 352 kts 258°
2026-05-07 14:46 41.38914 -92.22168 36036 ft 352 kts 258°
2026-05-07 14:46 41.37550 -92.28421 36036 ft 353 kts 258°
2026-05-07 14:47 41.36174 -92.34694 36036 ft 353 kts 258°
2026-05-07 14:47 41.34819 -92.40963 36036 ft 352 kts 258°
2026-05-07 14:48 41.33455 -92.47227 36036 ft 352 kts 258°
2026-05-07 14:48 41.32083 -92.53471 36036 ft 353 kts 258°
2026-05-07 14:49 41.30701 -92.59687 36036 ft 353 kts 258°
2026-05-07 14:49 41.29313 -92.65955 36036 ft 354 kts 258°
2026-05-07 14:50 41.27928 -92.72226 36033 ft 354 kts 258°
2026-05-07 14:50 41.26529 -92.78494 36031 ft 354 kts 258°
2026-05-07 14:51 41.25149 -92.84721 36028 ft 353 kts 258°
2026-05-07 14:51 41.23773 -92.90944 36026 ft 352 kts 258°
2026-05-07 14:52 41.22414 -92.96962 36024 ft 357 kts 258°
2026-05-07 14:52 41.20990 -93.03332 36022 ft 364 kts 259°
2026-05-07 14:53 41.19555 -93.09758 36019 ft 366 kts 259°
2026-05-07 14:53 41.18087 -93.16277 36015 ft 370 kts 259°
2026-05-07 14:54 41.16609 -93.22762 36010 ft 369 kts 259°
2026-05-07 14:54 41.15115 -93.29264 36003 ft 368 kts 259°
2026-05-07 14:55 41.13656 -93.35725 35995 ft 369 kts 259°
2026-05-07 14:55 41.12173 -93.42244 35991 ft 370 kts 259°
2026-05-07 14:56 41.10663 -93.48741 35990 ft 367 kts 259°
2026-05-07 14:56 41.09194 -93.55186 35991 ft 366 kts 259°
2026-05-07 14:57 41.07717 -93.61630 35991 ft 365 kts 259°
2026-05-07 14:57 41.06255 -93.67900 35998 ft 363 kts 258°
2026-05-07 14:58 41.04808 -93.74084 36005 ft 361 kts 259°
2026-05-07 14:58 41.03348 -93.80404 36012 ft 361 kts 259°
2026-05-07 14:59 41.01890 -93.86739 36016 ft 360 kts 259°
2026-05-07 14:59 41.00404 -93.93027 36009 ft 357 kts 259°
2026-05-07 15:00 40.98941 -93.99270 36002 ft 356 kts 259°
2026-05-07 15:00 40.97487 -94.05512 35994 ft 355 kts 259°
2026-05-07 15:01 40.96014 -94.11755 35990 ft 354 kts 259°
2026-05-07 15:01 40.94544 -94.17934 35992 ft 354 kts 259°
2026-05-07 15:02 40.93071 -94.24126 35992 ft 354 kts 259°
2026-05-07 15:02 40.91606 -94.30328 35991 ft 353 kts 260°
2026-05-07 15:03 40.90137 -94.36516 35990 ft 354 kts 259°
2026-05-07 15:03 40.88646 -94.42711 35991 ft 353 kts 259°
2026-05-07 15:04 40.87165 -94.48866 35990 ft 354 kts 259°
2026-05-07 15:04 40.85672 -94.55040 35990 ft 354 kts 259°
2026-05-07 15:05 40.84176 -94.61221 35995 ft 354 kts 259°
2026-05-07 15:05 40.82683 -94.67404 36002 ft 354 kts 259°
2026-05-07 15:06 40.81186 -94.73602 36009 ft 356 kts 259°
2026-05-07 15:06 40.79682 -94.79797 36016 ft 354 kts 259°
2026-05-07 15:07 40.78170 -94.85997 36018 ft 355 kts 259°
2026-05-07 15:07 40.76655 -94.92220 36018 ft 359 kts 260°
2026-05-07 15:08 40.75127 -94.98467 36018 ft 361 kts 261°
2026-05-07 15:08 40.73608 -95.04781 36018 ft 363 kts 262°
2026-05-07 15:09 40.72097 -95.11128 36011 ft 362 kts 261°
2026-05-07 15:09 40.70548 -95.17431 36004 ft 363 kts 261°
2026-05-07 15:10 40.68992 -95.23746 35996 ft 365 kts 261°
2026-05-07 15:10 40.67416 -95.30064 35990 ft 363 kts 261°
2026-05-07 15:11 40.65816 -95.36346 35990 ft 364 kts 261°
2026-05-07 15:11 40.64201 -95.42664 35990 ft 363 kts 261°
2026-05-07 15:12 40.62618 -95.48900 35991 ft 361 kts 261°
2026-05-07 15:12 40.61045 -95.55164 35992 ft 362 kts 261°
2026-05-07 15:13 40.59460 -95.61475 35993 ft 364 kts 261°
2026-05-07 15:13 40.57859 -95.67766 35995 ft 363 kts 261°
2026-05-07 15:14 40.56302 -95.74076 35998 ft 362 kts 262°
2026-05-07 15:14 40.54769 -95.80394 35999 ft 363 kts 261°
2026-05-07 15:15 40.53214 -95.86576 36000 ft 363 kts 261°
2026-05-07 15:15 40.51660 -95.92658 36000 ft 364 kts 261°
2026-05-07 15:16 40.50069 -95.98917 35999 ft 364 kts 261°
2026-05-07 15:16 40.48446 -96.05170 36000 ft 362 kts 260°
2026-05-07 15:17 40.46812 -96.11427 36000 ft 365 kts 261°
2026-05-07 15:17 40.45202 -96.17737 35999 ft 365 kts 261°
2026-05-07 15:18 40.43590 -96.24025 36000 ft 363 kts 261°
2026-05-07 15:18 40.41964 -96.30299 35999 ft 365 kts 261°
2026-05-07 15:19 40.40317 -96.36566 36000 ft 364 kts 261°
2026-05-07 15:19 40.38684 -96.42835 36000 ft 363 kts 261°
2026-05-07 15:20 40.37082 -96.49058 35999 ft 363 kts 261°
2026-05-07 15:20 40.35446 -96.55338 36000 ft 364 kts 261°
2026-05-07 15:21 40.33866 -96.61296 36000 ft 366 kts 261°
2026-05-07 15:21 40.32276 -96.67289 36000 ft 366 kts 260°
2026-05-07 15:22 40.30645 -96.73524 35999 ft 364 kts 260°
2026-05-07 15:22 40.29404 -96.79893 36000 ft 357 kts 267°
2026-05-07 15:23 40.28407 -96.86237 35999 ft 359 kts 266°
2026-05-07 15:23 40.27354 -96.92500 36000 ft 355 kts 266°
2026-05-07 15:24 40.26347 -96.98632 36000 ft 357 kts 267°
2026-05-07 15:24 40.25361 -97.05030 36000 ft 365 kts 268°
2026-05-07 15:25 40.24351 -97.11594 35999 ft 371 kts 267°
2026-05-07 15:25 40.23242 -97.18248 36000 ft 378 kts 266°
2026-05-07 15:26 40.22108 -97.25015 36000 ft 385 kts 268°
2026-05-07 15:26 40.20963 -97.31835 35999 ft 383 kts 266°
2026-05-07 15:27 40.19731 -97.38610 36000 ft 382 kts 266°
2026-05-07 15:27 40.18541 -97.45345 36000 ft 384 kts 267°
2026-05-07 15:28 40.17361 -97.52182 35998 ft 386 kts 267°
2026-05-07 15:28 40.16198 -97.59000 35999 ft 382 kts 267°
2026-05-07 15:29 40.15055 -97.65730 36000 ft 380 kts 267°
2026-05-07 15:29 40.13921 -97.72491 35999 ft 384 kts 267°
2026-05-07 15:30 40.12775 -97.79283 36000 ft 382 kts 266°
2026-05-07 15:30 40.11626 -97.86015 36000 ft 383 kts 267°
2026-05-07 15:31 40.10482 -97.92835 35999 ft 386 kts 266°
2026-05-07 15:31 40.09275 -97.99620 35994 ft 383 kts 266°
2026-05-07 15:32 40.08087 -98.06402 35989 ft 385 kts 266°
2026-05-07 15:32 40.06900 -98.13183 35985 ft 385 kts 266°
2026-05-07 15:33 40.05722 -98.19991 35985 ft 384 kts 266°
2026-05-07 15:33 40.04536 -98.26734 35979 ft 382 kts 266°
2026-05-07 15:34 40.03326 -98.33491 35972 ft 385 kts 267°
2026-05-07 15:34 40.02131 -98.40255 35963 ft 380 kts 267°
2026-05-07 15:35 40.00949 -98.46980 35963 ft 382 kts 267°
2026-05-07 15:35 39.99834 -98.53774 35963 ft 385 kts 268°
2026-05-07 15:36 39.98734 -98.60556 35966 ft 382 kts 268°
2026-05-07 15:36 39.97557 -98.67317 35972 ft 384 kts 265°
2026-05-07 15:37 39.96314 -98.74065 35982 ft 384 kts 266°
2026-05-07 15:37 39.95095 -98.80870 35991 ft 388 kts 266°
2026-05-07 15:38 39.93844 -98.87639 35999 ft 385 kts 266°
2026-05-07 15:38 39.92615 -98.94403 35999 ft 390 kts 266°
2026-05-07 15:39 39.91364 -99.01319 35998 ft 395 kts 265°
2026-05-07 15:39 39.90089 -99.08278 36000 ft 397 kts 265°
2026-05-07 15:40 39.88734 -99.15362 35999 ft 407 kts 264°
2026-05-07 15:40 39.87348 -99.22471 35999 ft 407 kts 264°
2026-05-07 15:41 39.85991 -99.29559 35999 ft 402 kts 264°
2026-05-07 15:41 39.84648 -99.36620 35988 ft 399 kts 264°
2026-05-07 15:42 39.83342 -99.43518 35988 ft 393 kts 264°
2026-05-07 15:42 39.82050 -99.50466 35986 ft 397 kts 265°
2026-05-07 15:43 39.80753 -99.57421 35984 ft 398 kts 265°
2026-05-07 15:43 39.79438 -99.64405 35984 ft 398 kts 265°
2026-05-07 15:44 39.78115 -99.71403 35983 ft 400 kts 264°
2026-05-07 15:44 39.76772 -99.78404 35983 ft 398 kts 264°
2026-05-07 15:45 39.75439 -99.85348 35982 ft 397 kts 264°
2026-05-07 15:45 39.74184 -99.92311 35981 ft 398 kts 265°
2026-05-07 15:46 39.72133 -100.02770 35981 ft 398 kts 264°
2026-05-07 15:47 39.70782 -100.09721 35981 ft 398 kts 264°
2026-05-07 15:47 39.69425 -100.16688 35981 ft 398 kts 264°
2026-05-07 15:48 39.68062 -100.23644 35981 ft 399 kts 264°
2026-05-07 15:48 39.66692 -100.30586 35981 ft 397 kts 264°
2026-05-07 15:49 39.65348 -100.37521 35981 ft 400 kts 264°
2026-05-07 15:49 39.63973 -100.44508 35981 ft 399 kts 264°
2026-05-07 15:50 39.62616 -100.51447 35981 ft 398 kts 264°
2026-05-07 15:50 39.61252 -100.58395 35984 ft 399 kts 264°
2026-05-07 15:51 39.59946 -100.65385 36000 ft 398 kts 264°
2026-05-07 15:51 39.58620 -100.72340 36016 ft 398 kts 264°
2026-05-07 15:52 39.57267 -100.79295 36029 ft 399 kts 264°
2026-05-07 15:52 39.55875 -100.86236 36032 ft 401 kts 263°
2026-05-07 15:53 39.54481 -100.93285 36030 ft 406 kts 263°
2026-05-07 15:53 39.53086 -101.00362 36029 ft 409 kts 262°
2026-05-07 15:54 39.51629 -101.07460 36028 ft 409 kts 262°
2026-05-07 15:54 39.50146 -101.14598 36027 ft 411 kts 262°
2026-05-07 15:55 39.48695 -101.21693 36027 ft 409 kts 261°
2026-05-07 15:55 39.47176 -101.28772 36027 ft 410 kts 261°
2026-05-07 15:56 39.45717 -101.35905 36027 ft 410 kts 262°
2026-05-07 15:56 39.44277 -101.43047 36027 ft 410 kts 262°
2026-05-07 15:57 39.42809 -101.50153 36027 ft 412 kts 262°
2026-05-07 15:57 39.41318 -101.57304 36026 ft 411 kts 261°
2026-05-07 15:58 39.39799 -101.64407 36027 ft 413 kts 262°
2026-05-07 15:58 39.38479 -101.71580 36027 ft 406 kts 267°
2026-05-07 15:59 39.37720 -101.78809 36027 ft 404 kts 268°
2026-05-07 15:59 39.36947 -101.85980 36026 ft 407 kts 268°
2026-05-07 16:00 39.36145 -101.93213 36026 ft 406 kts 268°
2026-05-07 16:00 39.35330 -102.00362 36028 ft 405 kts 268°
2026-05-07 16:01 39.34480 -102.07577 36039 ft 406 kts 268°
2026-05-07 16:01 39.33626 -102.14757 36050 ft 405 kts 268°
2026-05-07 16:02 39.32795 -102.21903 36060 ft 404 kts 268°
2026-05-07 16:02 39.31956 -102.29095 36063 ft 405 kts 268°
2026-05-07 16:03 39.31118 -102.36275 36064 ft 405 kts 268°
2026-05-07 16:03 39.30269 -102.43423 36064 ft 405 kts 268°
2026-05-07 16:04 39.29407 -102.50539 36064 ft 404 kts 267°
2026-05-07 16:04 39.28505 -102.57730 36063 ft 405 kts 267°
2026-05-07 16:05 39.27608 -102.64881 36064 ft 405 kts 268°
2026-05-07 16:05 39.26716 -102.72051 36063 ft 406 kts 266°
2026-05-07 16:06 39.25732 -102.79241 36063 ft 408 kts 266°
2026-05-07 16:06 39.24778 -102.86381 36064 ft 406 kts 266°
2026-05-07 16:07 39.23856 -102.93543 36063 ft 407 kts 267°
2026-05-07 16:07 39.22943 -103.00706 36070 ft 405 kts 266°
2026-05-07 16:08 39.22069 -103.07638 36080 ft 406 kts 266°
2026-05-07 16:08 39.21192 -103.14644 36090 ft 409 kts 266°
2026-05-07 16:09 39.20347 -103.21338 36100 ft 410 kts 265°
2026-05-07 16:09 39.19426 -103.28597 36100 ft 409 kts 265°
2026-05-07 16:10 39.18562 -103.35675 36101 ft 409 kts 266°
2026-05-07 16:10 39.17671 -103.42944 36101 ft 411 kts 265°
2026-05-07 16:11 39.16734 -103.50057 36100 ft 408 kts 265°
2026-05-07 16:11 39.15801 -103.57114 36101 ft 408 kts 266°
2026-05-07 16:12 39.14880 -103.64329 36100 ft 410 kts 265°
2026-05-07 16:12 39.13937 -103.71566 36100 ft 410 kts 265°
2026-05-07 16:13 39.12952 -103.78788 36100 ft 409 kts 264°
2026-05-07 16:13 39.11963 -103.85982 36100 ft 410 kts 264°
2026-05-07 16:14 39.10984 -103.93184 36101 ft 409 kts 265°
2026-05-07 16:14 39.10014 -104.00378 36125 ft 409 kts 265°
2026-05-07 16:15 39.09036 -104.07551 36150 ft 410 kts 265°
2026-05-07 16:15 39.08054 -104.14775 36175 ft 409 kts 265°
2026-05-07 16:16 39.07092 -104.21967 36182 ft 409 kts 265°
2026-05-07 16:16 39.06148 -104.29150 36182 ft 410 kts 265°
2026-05-07 16:17 39.05219 -104.36062 36182 ft 409 kts 265°
2026-05-07 16:17 39.04240 -104.43259 36183 ft 409 kts 265°
2026-05-07 16:18 39.03235 -104.50467 36183 ft 410 kts 265°
2026-05-07 16:18 39.02209 -104.57636 36183 ft 408 kts 264°
2026-05-07 16:19 39.01192 -104.64761 36183 ft 406 kts 265°
2026-05-07 16:19 39.00207 -104.71892 36172 ft 407 kts 264°
2026-05-07 16:20 38.99209 -104.79044 36161 ft 405 kts 264°
2026-05-07 16:20 38.98210 -104.86119 36151 ft 402 kts 264°
2026-05-07 16:21 38.97179 -104.93163 36146 ft 402 kts 264°
2026-05-07 16:21 38.96156 -105.00201 36146 ft 406 kts 264°
2026-05-07 16:22 38.95133 -105.07336 36146 ft 408 kts 264°
2026-05-07 16:22 38.94089 -105.14540 36146 ft 409 kts 264°
2026-05-07 16:23 38.93071 -105.21539 36146 ft 407 kts 264°
2026-05-07 16:23 38.92086 -105.28283 36146 ft 404 kts 263°
2026-05-07 16:24 38.91097 -105.35023 36146 ft 402 kts 264°
2026-05-07 16:24 38.90062 -105.42048 36175 ft 400 kts 263°
2026-05-07 16:25 38.89030 -105.49025 36214 ft 399 kts 263°
2026-05-07 16:25 38.87999 -105.55879 36253 ft 397 kts 263°
2026-05-07 16:26 38.86972 -105.62501 36283 ft 398 kts 263°
2026-05-07 16:26 38.85909 -105.69436 36281 ft 398 kts 263°
2026-05-07 16:27 38.84917 -105.76052 36280 ft 397 kts 263°
2026-05-07 16:27 38.83907 -105.82633 36279 ft 397 kts 263°
2026-05-07 16:28 38.82865 -105.89552 36278 ft 398 kts 263°
2026-05-07 16:28 38.81777 -105.96532 36280 ft 397 kts 263°
2026-05-07 16:29 38.80729 -106.03419 36281 ft 397 kts 263°
2026-05-07 16:29 38.79646 -106.10380 36283 ft 398 kts 263°
2026-05-07 16:30 38.78563 -106.17315 36283 ft 397 kts 263°
2026-05-07 16:30 38.77515 -106.24124 36283 ft 397 kts 263°
2026-05-07 16:31 38.76495 -106.30788 36283 ft 397 kts 263°
2026-05-07 16:31 38.75468 -106.37373 36295 ft 396 kts 263°
2026-05-07 16:32 38.74392 -106.44267 36313 ft 397 kts 263°
2026-05-07 16:32 38.73294 -106.51211 36331 ft 398 kts 263°
2026-05-07 16:33 38.72210 -106.58117 36348 ft 396 kts 263°
2026-05-07 16:33 38.71128 -106.65025 36347 ft 398 kts 262°
2026-05-07 16:34 38.70101 -106.71507 36347 ft 398 kts 262°
2026-05-07 16:34 38.69049 -106.78094 36347 ft 397 kts 262°
2026-05-07 16:35 38.67949 -106.85011 36347 ft 398 kts 262°
2026-05-07 16:35 38.66869 -106.91945 36347 ft 399 kts 262°
2026-05-07 16:36 38.65783 -106.98764 36347 ft 399 kts 261°
2026-05-07 16:36 38.64746 -107.05206 36347 ft 400 kts 261°
2026-05-07 16:37 38.63637 -107.12041 36347 ft 400 kts 261°
2026-05-07 16:37 38.62515 -107.18918 36347 ft 400 kts 261°
2026-05-07 16:38 38.61380 -107.25835 36347 ft 400 kts 261°
2026-05-07 16:38 38.60236 -107.32780 36340 ft 400 kts 261°
2026-05-07 16:39 38.59088 -107.39717 36327 ft 400 kts 261°
2026-05-07 16:39 38.57932 -107.46674 36313 ft 400 kts 261°
2026-05-07 16:40 38.56772 -107.53628 36301 ft 400 kts 261°
2026-05-07 16:40 38.55613 -107.60552 36301 ft 400 kts 261°
2026-05-07 16:41 38.54445 -107.67503 36301 ft 401 kts 260°
2026-05-07 16:41 38.53278 -107.74418 36301 ft 401 kts 260°
2026-05-07 16:42 38.52145 -107.81111 36283 ft 399 kts 260°
2026-05-07 16:42 38.50975 -107.87991 36283 ft 398 kts 260°
2026-05-07 16:43 38.49665 -107.94863 36283 ft 400 kts 257°
2026-05-07 16:43 38.48190 -108.01684 36283 ft 400 kts 257°
2026-05-07 16:44 38.46747 -108.08542 36282 ft 400 kts 257°
2026-05-07 16:44 38.45303 -108.15363 36281 ft 400 kts 257°
2026-05-07 16:45 38.43851 -108.22214 36281 ft 400 kts 257°
2026-05-07 16:45 38.42406 -108.29008 36280 ft 399 kts 257°
2026-05-07 16:46 38.40955 -108.35818 36279 ft 399 kts 257°
2026-05-07 16:46 38.39497 -108.42642 36277 ft 400 kts 257°
2026-05-07 16:47 38.38036 -108.49458 36281 ft 400 kts 257°
2026-05-07 16:47 38.36569 -108.56278 36278 ft 400 kts 257°
2026-05-07 16:48 38.35097 -108.63103 36271 ft 399 kts 257°
2026-05-07 16:48 38.33622 -108.69916 36263 ft 400 kts 257°
2026-05-07 16:49 38.32144 -108.76724 36258 ft 400 kts 257°
2026-05-07 16:49 38.30661 -108.83535 36258 ft 400 kts 257°
2026-05-07 16:50 38.29196 -108.90245 36256 ft 400 kts 257°
2026-05-07 16:50 38.27859 -108.96349 36254 ft 400 kts 257°
2026-05-07 16:51 38.26359 -109.03183 36253 ft 404 kts 257°
2026-05-07 16:51 38.24839 -109.10086 36254 ft 410 kts 256°
2026-05-07 16:52 38.23293 -109.17081 36256 ft 415 kts 256°
2026-05-07 16:52 38.21758 -109.24002 36252 ft 418 kts 256°
2026-05-07 16:53 38.20185 -109.31077 36244 ft 417 kts 256°
2026-05-07 16:53 38.18608 -109.38142 36238 ft 416 kts 256°
2026-05-07 16:54 38.17052 -109.45097 36235 ft 416 kts 256°
2026-05-07 16:54 38.15474 -109.52129 36238 ft 417 kts 256°
2026-05-07 16:55 38.13919 -109.59036 36242 ft 417 kts 256°
2026-05-07 16:55 38.12320 -109.66119 36245 ft 417 kts 255°
2026-05-07 16:56 38.10753 -109.73036 36249 ft 417 kts 255°
2026-05-07 16:56 38.08371 -109.83508 36254 ft 417 kts 255°
2026-05-07 16:57 38.06783 -109.90465 36256 ft 417 kts 255°
2026-05-07 16:57 38.05169 -109.97514 36252 ft 416 kts 255°
2026-05-07 16:58 38.03558 -110.04532 36247 ft 416 kts 255°
2026-05-07 16:58 38.01945 -110.11533 36242 ft 416 kts 255°
2026-05-07 16:59 38.00322 -110.18556 36237 ft 416 kts 255°
2026-05-07 16:59 37.98690 -110.25600 36237 ft 416 kts 255°
2026-05-07 17:00 37.97060 -110.32613 36237 ft 416 kts 255°
2026-05-07 17:00 37.95423 -110.39634 36238 ft 416 kts 255°
2026-05-07 17:01 37.93786 -110.46639 36238 ft 416 kts 255°
2026-05-07 17:01 37.92140 -110.53655 36238 ft 416 kts 255°
2026-05-07 17:02 37.90491 -110.60666 36238 ft 416 kts 255°
2026-05-07 17:02 37.88837 -110.67678 36237 ft 416 kts 255°
2026-05-07 17:03 37.87184 -110.74662 36237 ft 416 kts 255°
2026-05-07 17:03 37.85520 -110.81674 36237 ft 416 kts 255°
2026-05-07 17:04 37.83852 -110.88677 36237 ft 416 kts 255°
2026-05-07 17:04 37.82186 -110.95660 36238 ft 419 kts 255°
2026-05-07 17:05 37.80536 -111.02551 36237 ft 424 kts 254°
2026-05-07 17:05 37.78921 -111.09276 36237 ft 427 kts 253°
2026-05-07 17:06 37.77208 -111.16389 36248 ft 427 kts 253°
2026-05-07 17:06 37.75705 -111.22613 36266 ft 426 kts 253°
2026-05-07 17:07 37.73972 -111.29769 36282 ft 426 kts 253°
2026-05-07 17:07 37.72238 -111.36909 36292 ft 426 kts 253°
2026-05-07 17:08 37.70505 -111.44023 36291 ft 426 kts 253°
2026-05-07 17:08 37.68785 -111.51064 36296 ft 426 kts 253°
2026-05-07 17:09 37.67044 -111.58173 36305 ft 426 kts 253°
2026-05-07 17:09 37.65377 -111.64956 36310 ft 426 kts 253°
2026-05-07 17:10 37.63611 -111.72121 36311 ft 426 kts 253°
2026-05-07 17:10 37.61934 -111.78910 36311 ft 426 kts 253°
2026-05-07 17:11 37.60176 -111.86003 36311 ft 426 kts 253°
2026-05-07 17:11 37.58432 -111.93022 36311 ft 426 kts 253°
2026-05-07 17:12 37.56665 -112.00108 36311 ft 426 kts 253°
2026-05-07 17:12 37.54908 -112.07141 36311 ft 426 kts 253°
2026-05-07 17:13 37.52846 -112.13809 36310 ft 426 kts 243°
2026-05-07 17:13 37.49818 -112.19954 36311 ft 427 kts 237°
2026-05-07 17:14 37.46623 -112.26244 36311 ft 427 kts 238°
2026-05-07 17:14 37.43565 -112.32230 36311 ft 427 kts 238°
2026-05-07 17:15 37.40563 -112.38047 36308 ft 427 kts 237°
2026-05-07 17:15 37.37441 -112.44073 36299 ft 427 kts 237°
2026-05-07 17:16 37.34253 -112.50202 36284 ft 427 kts 237°
2026-05-07 17:16 37.31018 -112.56403 36262 ft 427 kts 237°
2026-05-07 17:17 37.27774 -112.62610 36247 ft 427 kts 237°
2026-05-07 17:17 37.24789 -112.68308 36247 ft 427 kts 237°
2026-05-07 17:18 37.21580 -112.74420 36247 ft 427 kts 237°
2026-05-07 17:18 37.18362 -112.80539 36246 ft 427 kts 237°
2026-05-07 17:19 37.15112 -112.86706 36247 ft 428 kts 237°
2026-05-07 17:19 37.11811 -112.92959 36247 ft 430 kts 237°
2026-05-07 17:20 37.08727 -112.98790 36247 ft 433 kts 235°
2026-05-07 17:20 37.05423 -113.05014 36245 ft 428 kts 234°
2026-05-07 17:21 37.02181 -113.11132 36225 ft 415 kts 234°
2026-05-07 17:21 36.99050 -113.17021 36205 ft 405 kts 235°
2026-05-07 17:22 36.95969 -113.22804 36002 ft 397 kts 236°
2026-05-07 17:22 36.94442 -113.25666 35357 ft 398 kts 236°
2026-05-07 17:22 36.92899 -113.28558 34753 ft 397 kts 236°
2026-05-07 17:23 36.91379 -113.31403 34231 ft 394 kts 236°
2026-05-07 17:23 36.89869 -113.34225 33696 ft 392 kts 236°
2026-05-07 17:23 36.88361 -113.37042 33158 ft 390 kts 236°
2026-05-07 17:23 36.86881 -113.39806 32627 ft 388 kts 236°
2026-05-07 17:24 36.85371 -113.42622 32098 ft 386 kts 236°
2026-05-07 17:24 36.83888 -113.45385 31554 ft 385 kts 236°
2026-05-07 17:24 36.82408 -113.48141 31010 ft 384 kts 236°
2026-05-07 17:24 36.80928 -113.50895 30469 ft 382 kts 236°
2026-05-07 17:25 36.79466 -113.53621 29934 ft 381 kts 236°
2026-05-07 17:25 36.78000 -113.56358 29402 ft 380 kts 236°
2026-05-07 17:25 36.76539 -113.59083 28873 ft 378 kts 235°
2026-05-07 17:25 36.75098 -113.61766 28352 ft 377 kts 235°
2026-05-07 17:26 36.73638 -113.64482 27823 ft 375 kts 235°
2026-05-07 17:26 36.72199 -113.67158 27302 ft 374 kts 234°
2026-05-07 17:26 36.70739 -113.69871 26774 ft 373 kts 234°
2026-05-07 17:26 36.69305 -113.72533 26255 ft 372 kts 234°
2026-05-07 17:27 36.67878 -113.75181 25739 ft 371 kts 234°
2026-05-07 17:27 36.66441 -113.77843 25221 ft 369 kts 234°
2026-05-07 17:27 36.65017 -113.80479 24707 ft 368 kts 234°
2026-05-07 17:27 36.63590 -113.83121 24191 ft 367 kts 234°
2026-05-07 17:28 36.62175 -113.85737 23681 ft 366 kts 234°
2026-05-07 17:28 36.60775 -113.88325 23176 ft 365 kts 234°
2026-05-07 17:28 36.59351 -113.90953 22663 ft 363 kts 234°
2026-05-07 17:28 36.57909 -113.93502 22161 ft 362 kts 231°
2026-05-07 17:29 36.56363 -113.95963 21658 ft 360 kts 230°
2026-05-07 17:29 36.54833 -113.98383 21162 ft 359 kts 230°
2026-05-07 17:29 36.53322 -114.00816 20667 ft 358 kts 231°
2026-05-07 17:29 36.51806 -114.03258 20166 ft 357 kts 230°
2026-05-07 17:30 36.50301 -114.05676 19667 ft 355 kts 230°
2026-05-07 17:30 36.48790 -114.08102 19165 ft 354 kts 231°
2026-05-07 17:30 36.47290 -114.10513 18666 ft 353 kts 231°
2026-05-07 17:30 36.45799 -114.12907 18171 ft 352 kts 231°
2026-05-07 17:31 36.44294 -114.15324 17673 ft 351 kts 231°
2026-05-07 17:31 36.42808 -114.17708 17149 ft 351 kts 231°
2026-05-07 17:31 36.41313 -114.20105 16598 ft 352 kts 231°
2026-05-07 17:31 36.39830 -114.22482 16113 ft 350 kts 231°
2026-05-07 17:32 36.38381 -114.24784 15891 ft 327 kts 230°
2026-05-07 17:32 36.37008 -114.26934 15598 ft 309 kts 230°
2026-05-07 17:32 36.35700 -114.28982 15209 ft 300 kts 230°
2026-05-07 17:32 36.34393 -114.31029 14798 ft 309 kts 230°
2026-05-07 17:33 36.33066 -114.33109 14367 ft 300 kts 230°
2026-05-07 17:33 36.31792 -114.35107 13967 ft 301 kts 230°
2026-05-07 17:33 36.30471 -114.37171 13539 ft 303 kts 230°
2026-05-07 17:33 36.29206 -114.39153 13133 ft 293 kts 230°
2026-05-07 17:34 36.27923 -114.41159 12729 ft 301 kts 230°
2026-05-07 17:34 36.26635 -114.43172 12310 ft 293 kts 231°
2026-05-07 17:34 36.25371 -114.45146 11914 ft 294 kts 230°
2026-05-07 17:34 36.24096 -114.47106 11506 ft 295 kts 230°
2026-05-07 17:35 36.22821 -114.49058 11105 ft 286 kts 230°
2026-05-07 17:35 36.21550 -114.51007 10708 ft 295 kts 230°
2026-05-07 17:35 36.20284 -114.52947 10301 ft 286 kts 230°
2026-05-07 17:35 36.19049 -114.54840 9992 ft 286 kts 230°
2026-05-07 17:36 36.17835 -114.56699 9748 ft 274 kts 230°
2026-05-07 17:36 36.16620 -114.58557 9367 ft 281 kts 230°
2026-05-07 17:36 36.15400 -114.60423 9020 ft 279 kts 231°
2026-05-07 17:36 36.14180 -114.62286 8982 ft 278 kts 231°
2026-05-07 17:37 36.12975 -114.64127 8882 ft 273 kts 231°
2026-05-07 17:37 36.11780 -114.65951 8595 ft 278 kts 230°
2026-05-07 17:37 36.10611 -114.67735 8318 ft 276 kts 230°
2026-05-07 17:37 36.09427 -114.69540 8205 ft 265 kts 230°
2026-05-07 17:38 36.08286 -114.71280 8116 ft 257 kts 231°
2026-05-07 17:38 36.07417 -114.73166 7957 ft 250 kts 255°
2026-05-07 17:38 36.07343 -114.75274 7666 ft 247 kts 274°
2026-05-07 17:38 36.07379 -114.77396 7355 ft 246 kts 268°
2026-05-07 17:39 36.07349 -114.79491 7059 ft 245 kts 270°
2026-05-07 17:39 36.07344 -114.81573 6768 ft 243 kts 270°
2026-05-07 17:39 36.07346 -114.83665 6476 ft 242 kts 270°
2026-05-07 17:39 36.07350 -114.85727 6182 ft 240 kts 270°
2026-05-07 17:40 36.07354 -114.87755 5957 ft 231 kts 270°
2026-05-07 17:40 36.07357 -114.89707 5696 ft 217 kts 270°
2026-05-07 17:40 36.07359 -114.91489 5427 ft 199 kts 270°
2026-05-07 17:40 36.07361 -114.93111 5190 ft 181 kts 270°
2026-05-07 17:41 36.07363 -114.94637 4952 ft 177 kts 270°
2026-05-07 17:41 36.07364 -114.96152 4708 ft 178 kts 270°
2026-05-07 17:41 36.07365 -114.97688 4476 ft 174 kts 270°
2026-05-07 17:41 36.07367 -114.99133 4219 ft 168 kts 270°
2026-05-07 17:42 36.07366 -115.00609 4008 ft 169 kts 269°
2026-05-07 17:42 36.07367 -115.02005 3748 ft 158 kts 270°
2026-05-07 17:42 36.07367 -115.03345 3571 ft 156 kts 270°
2026-05-07 17:42 36.07367 -115.04692 3340 ft 155 kts 270°
2026-05-07 17:43 36.07367 -115.06016 3130 ft 155 kts 270°
2026-05-07 17:43 36.07367 -115.07343 2921 ft 154 kts 270°
2026-05-07 17:43 36.07367 -115.08669 2714 ft 153 kts 270°
2026-05-07 17:43 36.07366 -115.09987 2520 ft 152 kts 270°
2026-05-07 17:44 36.07368 -115.11289 2317 ft 151 kts 270°
2026-05-07 17:44 36.07364 -115.12592 2094 ft 151 kts 269°
2026-05-07 17:44 36.07364 -115.13802 2082 ft 121 kts 272°
2026-05-07 17:44 36.07368 -115.14501 2102 ft 43 kts 270°
2026-05-07 17:45 36.07380 -115.14793 2113 ft 27 kts 283°
2026-05-07 17:45 36.07433 -115.14976 2119 ft 17 kts 297°
2026-05-07 17:45 36.07486 -115.15079 2122 ft 13 kts 308°
2026-05-07 17:45 36.07550 -115.15155 2124 ft 13 kts 333°
2026-05-07 17:46 36.07658 -115.15207 2124 ft 19 kts 337°
2026-05-07 17:46 36.07798 -115.15286 2124 ft 25 kts 336°
2026-05-07 17:46 36.07966 -115.15384 2124 ft 24 kts 332°
2026-05-07 17:46 36.08115 -115.15444 2122 ft 21 kts
2026-05-07 17:47 36.08231 -115.15407 2119 ft 14 kts 44°
2026-05-07 17:47 36.08253 -115.15358 2116 ft 0 kts 65°
2026-05-07 17:47 36.08257 -115.15346 2115 ft 2 kts 65°
2026-05-07 17:47 36.08259 -115.15342 2115 ft 0 kts 65°
2026-05-07 17:48 36.08261 -115.15337 2115 ft 0 kts 65°
2026-05-07 17:48 36.08257 -115.15347 2115 ft 0 kts 65°
2026-05-07 17:48 36.08258 -115.15345 2115 ft 2 kts 65°
2026-05-07 17:48 36.08255 -115.15352 2116 ft 0 kts 65°